Location: Luxembourg
(49.6117°N, 6.1300°E)
Time: 21:37:53
(UTC+02:00)

Tiangong 2 - Visible Passes

Search period start: 17 July 2018 00:00
Search period end: 27 July 2018 00:00
Orbit: 386 x 394 km, 42.8° (Epoch: 17 July)

Date Brightness Start Highest point End Pass type
(mag) Time Alt. Az. Time Alt. Az. Time Alt. Az.
17 Jul 2.5 22:43:32 10° WSW 22:46:09 23° S 22:48:00 14° SE visible
18 Jul 2.9 23:22:43 10° WSW 23:24:55 17° SSW 23:25:03 17° SSW visible
19 Jul 2.7 22:24:57 10° WSW 22:27:26 21° S 22:29:45 11° SE visible
20 Jul 3.3 23:04:35 10° SW 23:06:07 13° SSW 23:06:46 12° S visible
